FW9917 Weather Reports


Display with metric or nautical units.
time (UTC)temp
F
wind
direction
speed
MPH
gust
MPH
rain 1hr
in
rain 24hr
in
rain mn
in
humidity
%
barometer
mb
20260502232557 59 0 0.0 4.0 0.00 0.00 0.00 45 1016.8
20260502232057 59 10 0.0 5.0 0.00 0.00 0.00 46 1016.8
20260502231555 59 0 1.0 5.0 0.00 0.00 0.00 45 1017.0
20260502231057 59 0 1.0 5.0 0.00 0.00 0.00 45 1017.0
20260502230557 60 11 0.0 5.0 0.00 0.00 0.00 45 1017.0
20260502230056 60 0 0.0 5.0 0.00 0.00 0.00 47 1017.2
20260502225556 60 0 0.0 3.0 0.00 0.00 0.00 46 1017.2
20260502225058 60 15 1.0 3.0 0.00 0.00 0.00 43 1017.3
20260502224608 61 0 0.0 0.0 0.00 0.00 0.00 47 1017.2
20260502224057 60 0 0.0 2.0 0.00 0.00 0.00 47 1017.2
20260502223557 60 0 0.0 5.0 0.00 0.00 0.00 46 1017.3
20260502223057 60 0 0.0 5.0 0.00 0.00 0.00 44 1017.4
20260502222557 61 16 1.0 3.0 0.00 0.00 0.00 44 1017.4
20260502222056 61 0 0.0 2.0 0.00 0.00 0.00 44 1017.4
20260502221556 60 0 0.0 2.0 0.00 0.00 0.00 44 1017.6
20260502221056 60 0 0.0 4.0 0.00 0.00 0.00 44 1017.8
20260502220557 60 0 0.0 4.0 0.00 0.00 0.00 44 1017.8
20260502220106 60 15 1.0 4.0 0.00 0.00 0.00 44 1017.8
20260502215557 60 15 2.0 4.0 0.00 0.00 0.00 43 1018.0
20260502215100 60 0 0.0 2.0 0.00 0.00 0.00 44 1018.0
20260502214558 60 14 0.0 4.0 0.00 0.00 0.00 45 1018.0
20260502214058 60 0 1.0 4.0 0.00 0.00 0.00 45 1018.1
20260502213556 60 11 1.0 7.0 0.00 0.00 0.00 44 1018.2
20260502213124 60 15 2.0 8.0 0.00 0.00 0.00 44 1018.1
20260502212556 60 5 3.0 8.0 0.00 0.00 0.00 43 1018.2
20260502212057 60 16 0.0 9.0 0.00 0.00 0.00 42 1018.2
20260502211632 61 9 2.0 9.0 0.00 0.00 0.00 41 1018.2
20260502211059 61 10 3.0 9.0 0.00 0.00 0.00 40 1018.1
20260502210557 61 15 1.0 9.0 0.00 0.00 0.00 42 1018.1
20260502210109 62 14 1.0 3.0 0.00 0.00 0.00 42 1018.1
20260502205557 62 14 1.0 5.0 0.00 0.00 0.00 41 1018.3
20260502205057 62 14 0.0 5.0 0.00 0.00 0.00 43 1018.2
20260502204557 62 15 1.0 5.0 0.00 0.00 0.00 41 1018.3
20260502204057 62 14 1.0 5.0 0.00 0.00 0.00 42 1018.3
20260502203556 61 15 0.0 5.0 0.00 0.00 0.00 41 1018.3
20260502203101 61 15 0.0 4.0 0.00 0.00 0.00 41 1018.4
20260502202556 61 0 1.0 4.0 0.00 0.00 0.00 38 1018.4
20260502202056 61 15 0.0 3.0 0.00 0.00 0.00 39 1018.3
20260502201602 61 16 0.0 3.0 0.00 0.00 0.00 39 1018.3
20260502201057 61 12 0.0 4.0 0.00 0.00 0.00 39 1018.4
20260502200555 61 15 1.0 4.0 0.00 0.00 0.00 39 1018.3
20260502200056 61 15 2.0 4.0 0.00 0.00 0.00 37 1018.5
20260502195557 61 14 0.0 3.0 0.00 0.00 0.00 38 1018.4
20260502195057 61 0 1.0 3.0 0.00 0.00 0.00 39 1018.4
20260502194607 61 0 0.0 2.0 0.00 0.00 0.00 40 1018.4
20260502194057 61 0 0.0 1.0 0.00 0.00 0.00 41 1018.5
20260502193559 61 0 0.0 2.0 0.00 0.00 0.00 40 1018.6
20260502193055 61 0 0.0 3.0 0.00 0.00 0.00 41 1018.6
20260502192556 61 15 0.0 5.0 0.00 0.00 0.00 41 1018.7
20260502192056 61 15 1.0 5.0 0.00 0.00 0.00 38 1018.5
20260502191603 61 15 2.0 5.0 0.00 0.00 0.00 38 1018.7
20260502191058 60 0 0.0 3.0 0.00 0.00 0.00 43 1018.6
20260502190556 60 16 1.0 3.0 0.00 0.00 0.00 40 1018.7
20260502190059 60 0 1.0 2.0 0.00 0.00 0.00 43 1018.7
20260502185557 60 15 0.0 2.0 0.00 0.00 0.00 44 1018.7
20260502185057 60 0 0.0 2.0 0.00 0.00 0.00 43 1018.6
20260502184600 60 0 0.0 2.0 0.00 0.00 0.00 46 1018.7
20260502184057 60 15 0.0 2.0 0.00 0.00 0.00 45 1018.8
20260502183601 60 0 0.0 2.0 0.00 0.00 0.00 44 1018.9
20260502183106 59 15 0.0 2.0 0.00 0.00 0.00 42 1018.8
20260502182559 59 0 0.0 2.0 0.00 0.00 0.00 45 1018.9
20260502182056 59 0 0.0 0.0 0.00 0.00 0.00 50 1018.8
20260502181555 58 0 0.0 1.0 0.00 0.00 0.00 56 1018.9
20260502181059 58 0 0.0 2.0 0.00 0.00 0.00 56 1019.1
20260502180557 57 0 0.0 2.0 0.00 0.00 0.00 53 1019.0
20260502164057 51 0 0.0 2.0 0.00 0.00 0.00 77 1019.1
20260502163556 51 0 0.0 2.0 0.00 0.00 0.00 77 1019.1
20260502163058 51 0 0.0 2.0 0.00 0.00 0.00 78 1019.2
20260502162557 51 0 0.0 2.0 0.00 0.00 0.00 78 1019.1
20260502162056 50 0 0.0 2.0 0.00 0.00 0.00 79 1019.1
20260502161555 50 0 0.0 2.0 0.00 0.00 0.00 79 1019.1
20260502161057 50 14 0.0 2.0 0.00 0.00 0.00 79 1019.2
20260502160557 50 0 0.0 1.0 0.00 0.00 0.00 79 1019.1
20260502152123 49 0 0.0 2.0 0.00 0.00 0.00 76 1019.1
20260502151603 48 13 0.0 1.0 0.00 0.00 0.00 80 1019.1
20260502151056 47 0 0.0 1.0 0.00 0.00 0.00 81 1019.1
20260502150554 46 0 0.0 1.0 0.00 0.00 0.00 81 1019.1
20260502130555 41 0 0.0 0.0 0.00 0.00 0.00 81 1018.4
20260502123559 41 83 1.0 3.0 0.00 0.00 0.00 77 1018.5
20260502123053 41 83 0.0 2.0 0.00 0.00 0.00 77 1018.6
20260502122555 41 0 0.0 2.0 0.00 0.00 0.00 77 1018.5
20260502122057 41 80 1.0 2.0 0.00 0.00 0.00 76 1018.6
20260502121555 41 0 0.0 2.0 0.00 0.00 0.00 76 1018.5
20260502121057 41 0 0.0 2.0 0.00 0.00 0.00 76 1018.5
20260502120557 41 85 0.0 1.0 0.00 0.00 0.00 75 1018.5
20260502115558 41 0 0.0 1.0 0.00 0.00 0.00 75 1018.4
20260502115057 41 0 0.0 2.0 0.00 0.00 0.00 75 1018.5
20260502114609 41 0 0.0 2.0 0.00 0.00 0.00 74 1018.4
20260502114057 41 85 0.0 2.0 0.00 0.00 0.00 74 1018.5
20260502113557 41 77 0.0 2.0 0.00 0.00 0.00 74 1018.5
20260502113055 41 0 0.0 2.0 0.00 0.00 0.00 73 1018.7
20260502112556 41 0 0.0 2.0 0.00 0.00 0.00 73 1018.5
20260502112056 41 84 0.0 3.0 0.00 0.00 0.00 73 1018.6
20260502111558 41 82 1.0 3.0 0.00 0.00 0.00 72 1018.7
20260502111057 41 85 0.0 3.0 0.00 0.00 0.00 72 1018.7
20260502110557 41 68 0.0 3.0 0.00 0.00 0.00 71 1018.7
20260502110059 41 85 0.0 3.0 0.00 0.00 0.00 70 1018.8
20260502105557 41 0 1.0 3.0 0.00 0.00 0.00 69 1018.7
20260502105058 41 85 0.0 3.0 0.00 0.00 0.00 69 1018.7
20260502104554 41 80 0.0 3.0 0.00 0.00 0.00 68 1018.8
20260502104101 41 0 1.0 3.0 0.00 0.00 0.00 68 1018.8
20260502103557 41 0 0.0 2.0 0.00 0.00 0.00 68 1018.8
20260502103056 41 0 0.0 2.0 0.00 0.00 0.00 68 1018.7
20260502102557 42 78 0.0 2.0 0.00 0.00 0.00 68 1018.8
20260502102056 42 0 0.0 2.0 0.00 0.00 0.00 67 1018.7
20260502101623 42 83 0.0 2.0 0.00 0.00 0.00 66 1018.7
20260502101056 42 0 0.0 0.0 0.00 0.00 0.00 65 1018.8
20260502100556 42 0 0.0 0.0 0.00 0.00 0.00 66 1018.7
20260502100103 42 0 0.0 0.0 0.00 0.00 0.00 65 1018.7
20260502091056 43 83 0.0 2.0 0.00 0.00 0.00 63 1019.0
20260502090556 43 0 0.0 2.0 0.00 0.00 0.00 62 1019.0
20260502090109 43 0 0.0 2.0 0.00 0.00 0.00 63 1018.9
20260502080108 44 0 0.0 0.0 0.00 0.00 0.00 58 1019.3
20260502071057 45 61 1.0 3.0 0.00 0.00 0.00 54 1019.7
20260502070557 45 80 1.0 3.0 0.00 0.00 0.00 54 1019.7
20260502070125 45 86 1.0 3.0 0.00 0.00 0.00 53 1019.8
20260502065557 45 85 1.0 3.0 0.00 0.00 0.00 54 1019.8
20260502065057 45 83 0.0 4.0 0.00 0.00 0.00 52 1019.7
20260502064558 45 89 1.0 4.0 0.00 0.00 0.00 52 1019.7
20260502064057 45 0 1.0 3.0 0.00 0.00 0.00 52 1019.8
20260502063558 45 84 1.0 5.0 0.00 0.00 0.00 52 1019.6
20260502063100 45 90 1.0 5.0 0.00 0.00 0.00 51 1019.6
20260502062559 46 75 1.0 3.0 0.00 0.00 0.00 53 1019.6
20260502062056 46 63 1.0 3.0 0.00 0.00 0.00 54 1019.6
20260502061607 46 83 1.0 3.0 0.00 0.00 0.00 54 1019.5
20260502061056 46 82 1.0 3.0 0.00 0.00 0.00 54 1019.6
20260502060557 46 84 1.0 3.0 0.00 0.00 0.00 55 1019.6
20260502055555 47 86 1.0 3.0 0.00 0.00 0.00 57 1019.7
20260502055058 47 0 1.0 3.0 0.00 0.00 0.00 58 1019.8
20260502054559 47 86 1.0 3.0 0.00 0.00 0.00 58 1019.8
20260502054055 47 67 1.0 3.0 0.00 0.00 0.00 59 1019.8
20260502053555 47 0 1.0 3.0 0.00 0.00 0.00 59 1019.7
20260502053100 48 0 0.0 4.0 0.00 0.00 0.00 59 1019.8
20260502052555 48 88 1.0 4.0 0.00 0.00 0.00 60 1019.9
20260502052058 48 70 1.0 4.0 0.00 0.00 0.00 61 1019.9
20260502051627 48 66 1.0 3.0 0.00 0.00 0.00 62 1019.9
20260502051055 48 77 1.0 3.0 0.00 0.00 0.00 64 1019.8
20260502050554 48 0 1.0 3.0 0.00 0.00 0.00 64 1019.8
20260502050058 48 82 0.0 3.0 0.00 0.00 0.00 64 1019.8
20260502045556 49 85 1.0 3.0 0.00 0.00 0.00 64 1019.9
20260502045054 49 83 1.0 2.0 0.00 0.00 0.00 63 1019.9
20260502044554 49 0 0.0 1.0 0.00 0.00 0.00 64 1019.8
20260502044055 49 0 0.0 2.0 0.00 0.00 0.00 64 1019.8
20260502043555 49 0 0.0 2.0 0.00 0.00 0.00 63 1019.7
20260502043105 49 79 1.0 2.0 0.00 0.00 0.00 61 1019.7
20260502042553 50 82 0.0 2.0 0.00 0.00 0.00 62 1019.7
20260502042054 50 80 0.0 2.0 0.00 0.00 0.00 60 1019.6
20260502041555 50 83 0.0 2.0 0.00 0.00 0.00 59 1019.6
20260502041055 50 0 0.0 4.0 0.00 0.00 0.00 59 1019.6
20260502040555 51 87 0.0 4.0 0.00 0.00 0.00 58 1019.6
20260502035555 51 86 1.0 4.0 0.00 0.00 0.00 57 1019.5
20260502035055 51 76 0.0 3.0 0.00 0.00 0.00 56 1019.5
20260502034559 52 0 0.0 3.0 0.00 0.00 0.00 54 1019.4
20260502034057 52 0 1.0 3.0 0.00 0.00 0.00 54 1019.3
20260502033554 52 90 0.0 3.0 0.00 0.00 0.00 52 1019.3
20260502033053 53 85 0.0 3.0 0.00 0.00 0.00 50 1019.2
20260502032555 53 78 1.0 3.0 0.00 0.00 0.00 49 1019.1
20260502032055 54 272 0.0 2.0 0.00 0.00 0.00 47 1019.0
20260502031554 54 272 0.0 1.0 0.00 0.00 0.00 47 1018.9
20260502031056 54 0 0.0 1.0 0.00 0.00 0.00 48 1018.9
20260502030554 55 0 0.0 2.0 0.00 0.00 0.00 46 1018.9
20260502030104 55 272 0.0 2.0 0.00 0.00 0.00 43 1018.9
20260502025555 56 15 0.0 2.0 0.00 0.00 0.00 41 1018.7
20260502025055 57 0 0.0 1.0 0.00 0.00 0.00 44 1018.9
20260502024556 57 0 0.0 0.0 0.00 0.00 0.00 41 1018.9
20260502024059 58 0 0.0 0.0 0.00 0.00 0.00 39 1018.9
20260502023601 59 0 0.0 0.0 0.00 0.00 0.00 42 1018.9
20260502023120 59 0 0.0 1.0 0.00 0.00 0.00 38 1018.8
20260502022559 60 0 0.0 1.0 0.00 0.00 0.00 38 1018.8
20260502022056 60 0 0.0 0.0 0.00 0.00 0.00 37 1018.8
20260502021556 61 0 0.0 0.0 0.00 0.00 0.00 37 1018.7
20260502021056 61 0 0.0 0.0 0.00 0.00 0.00 34 1018.7
20260502020557 61 0 0.0 0.0 0.00 0.00 0.00 34 1018.7
20260502020107 61 0 0.0 0.0 0.00 0.00 0.00 31 1018.7
20260502015557 61 0 0.0 1.0 0.00 0.00 0.00 31 1018.7
20260502015057 61 0 0.0 1.0 0.00 0.00 0.00 33 1018.7
20260502014557 62 0 0.0 1.0 0.00 0.00 0.00 29 1018.7
20260502014057 62 0 0.0 1.0 0.00 0.00 0.00 31 1018.7
20260502013557 62 0 0.0 1.0 0.00 0.00 0.00 26 1018.7
20260502013109 62 0 0.0 1.0 0.00 0.00 0.00 25 1018.7
20260502012557 62 0 0.0 1.0 0.00 0.00 0.00 25 1018.7
20260502012057 62 0 0.0 1.0 0.00 0.00 0.00 25 1018.8
20260502011608 61 14 0.0 2.0 0.00 0.00 0.00 26 1018.8
20260502011056 62 0 0.0 2.0 0.00 0.00 0.00 26 1018.7
20260502010556 62 14 0.0 2.0 0.00 0.00 0.00 26 1018.8
20260502010100 62 0 0.0 1.0 0.00 0.00 0.00 27 1018.8
20260502005557 63 13 0.0 2.0 0.00 0.00 0.00 26 1018.9
20260502005057 63 0 0.0 2.0 0.00 0.00 0.00 26 1018.8
20260502004618 63 0 0.0 2.0 0.00 0.00 0.00 26 1018.8
20260502004057 64 0 0.0 2.0 0.00 0.00 0.00 27 1018.9
20260502003557 65 13 1.0 3.0 0.00 0.00 0.00 27 1018.9
20260502003101 65 15 1.0 3.0 0.00 0.00 0.00 26 1018.9
20260502002558 67 13 1.0 4.0 0.00 0.00 0.00 27 1018.8
20260502002057 67 13 0.0 5.0 0.00 0.00 0.00 26 1018.7
20260502001611 67 13 1.0 5.0 0.00 0.00 0.00 25 1018.8
20260502001059 67 15 1.0 3.0 0.00 0.00 0.00 28 1018.9
20260502000558 67 14 1.0 6.0 0.00 0.00 0.00 27 1018.9
20260502000104 67 14 1.0 7.0 0.00 0.00 0.00 26 1018.7
20260501235558 67 0 1.0 7.0 0.00 0.00 0.00 25 1018.7
20260501235057 68 13 1.0 4.0 0.00 0.00 0.00 28 1018.7
20260501234606 68 14 1.0 4.0 0.00 0.00 0.00 24 1018.7
20260501234057 68 15 1.0 3.0 0.00 0.00 0.00 23 1018.8
20260501233600 67 15 1.0 4.0 0.00 0.00 0.00 20 1018.9
20260501233104 67 13 0.0 4.0 0.00 0.00 0.00 24 1018.9